timestamp,surface_pressure_avg,surface_temp_avg,battery_voltage,lat,long
2022-09-21 00:09:00+00:00,259.4614,14.5,11.53,47.84626,-54.09684
2022-09-21 00:19:00+00:00,253.6981,14.5,11.53,47.84626,-54.09684
2022-09-21 00:29:00+00:00,251.5398,14.5,11.53,47.84626,-54.09684
2022-09-21 00:39:00+00:00,251.7731,14.5,11.53,47.84626,-54.09684
2022-09-21 00:49:00+00:00,246.9647,14.5,11.53,47.84626,-54.09684
2022-09-21 00:59:00+00:00,244.7765,14.5,11.53,47.84626,-54.09684
2022-09-21 01:09:00+00:00,244.0548,14.5,11.53,47.84626,-54.09684
2022-09-21 01:19:00+00:00,241.7164,14.5,11.46,47.84626,-54.09684
2022-09-21 01:29:00+00:00,236.5964,14.5,11.46,47.84626,-54.09684
2022-09-21 01:39:00+00:00,233.583,14.5,11.46,47.84626,-54.09684
2022-09-21 01:49:00+00:00,232.6348,14.55,11.46,47.84626,-54.09684
2022-09-21 01:59:00+00:00,230.5997,14.59,11.46,47.84626,-54.09684
2022-09-21 02:09:00+00:00,227.5781,14.6,11.46,47.84626,-54.09684
2022-09-21 02:19:01+00:00,224.3981,14.6,11.46,47.84626,-54.09684
2022-09-21 02:29:01+00:00,222.8431,14.6,11.46,47.84626,-54.09684
2022-09-21 02:39:01+00:00,222.1215,14.55,11.46,47.84626,-54.09684
2022-09-21 02:49:01+00:00,222.3881,14.52,11.46,47.84626,-54.09684
2022-09-21 02:59:01+00:00,223.1114,14.51,11.46,47.84626,-54.09684
2022-09-21 03:09:01+00:00,223.5964,14.5,11.46,47.84626,-54.09684
2022-09-21 03:19:00+00:00,223.8681,14.5,11.46,47.84626,-54.09684
2022-09-21 03:29:00+00:00,223.3199,14.5,11.46,47.84626,-54.09684
2022-09-21 03:39:00+00:00,224.7014,14.5,11.46,47.84626,-54.09684
2022-09-21 03:49:00+00:00,227.2731,14.5,11.46,47.84626,-54.09684
2022-09-21 03:59:00+00:00,229.1398,14.5,11.46,47.84626,-54.09684
2022-09-21 04:09:00+00:00,231.2064,14.49,11.46,47.84626,-54.09684
2022-09-21 04:19:00+00:00,234.3131,14.48,11.46,47.84626,-54.09684
2022-09-21 04:29:00+00:00,236.7497,14.49,11.46,47.84626,-54.09684
2022-09-21 04:39:00+00:00,236.4464,14.4,11.46,47.84626,-54.09684
2022-09-21 04:49:00+00:00,234.8148,14.3,11.46,47.84626,-54.09684
2022-09-21 04:59:00+00:00,237.0815,14.2,11.46,47.84626,-54.09684
2022-09-21 05:09:00+00:00,245.1614,14.2,11.46,47.84626,-54.09684
2022-09-21 05:19:00+00:00,249.2214,14.2,11.46,47.84626,-54.09684
2022-09-21 05:29:00+00:00,251.6414,14.1,11.46,47.84626,-54.09684
2022-09-21 05:39:00+00:00,256.0114,14.1,11.46,47.84626,-54.09684
2022-09-21 05:49:00+00:00,258.9648,14.1,11.46,47.84626,-54.09684
2022-09-21 05:59:00+00:00,259.9664,14.0,11.46,47.84626,-54.09684
2022-09-21 06:09:00+00:00,262.5764,14.0,11.46,47.84626,-54.09684
2022-09-21 06:19:00+00:00,266.5664,14.09,11.46,47.84626,-54.09684
2022-09-21 06:29:00+00:00,270.6147,14.1,11.46,47.84626,-54.09684
2022-09-21 06:39:00+00:00,273.223,13.86,11.46,47.84626,-54.09684
2022-09-21 06:49:00+00:00,275.8481,13.89,11.46,47.84626,-54.09684
2022-09-21 06:59:00+00:00,279.2448,14.1,11.46,47.84626,-54.09684
2022-09-21 07:09:00+00:00,283.0363,14.1,11.46,47.84626,-54.09684
2022-09-21 07:19:00+00:00,282.278,14.1,11.46,47.84626,-54.09684
2022-09-21 07:29:00+00:00,284.4498,14.12,11.46,47.84626,-54.09684
2022-09-21 07:39:00+00:00,287.6763,14.16,11.46,47.84626,-54.09684
2022-09-21 07:49:00+00:00,288.8781,14.15,11.46,47.84626,-54.09684
2022-09-21 07:59:00+00:00,286.5681,14.1,11.46,47.84626,-54.09684
2022-09-21 08:09:00+00:00,286.6931,14.12,11.46,47.84626,-54.09684
2022-09-21 08:19:00+00:00,287.9498,14.14,11.46,47.84626,-54.09684
2022-09-21 08:29:00+00:00,286.8347,14.1,11.46,47.84626,-54.09684
2022-09-21 08:39:00+00:00,288.4097,14.1,11.46,47.84626,-54.09684
2022-09-21 08:49:00+00:00,292.0331,14.12,11.46,47.84626,-54.09684
2022-09-21 08:59:00+00:00,291.168,14.1,11.46,47.84626,-54.09684
2022-09-21 09:09:00+00:00,286.5181,14.1,11.46,47.84626,-54.09684
2022-09-21 09:19:00+00:00,288.3846,14.1,11.37,47.84626,-54.09684
2022-09-21 09:29:00+00:00,290.8965,14.1,11.37,47.84626,-54.09684
2022-09-21 09:39:00+00:00,287.2347,14.1,11.37,47.84626,-54.09684
2022-09-21 09:49:00+00:00,283.9481,14.1,11.37,47.84626,-54.09684
2022-09-21 09:59:00+00:00,285.3347,14.1,11.37,47.84626,-54.09684
2022-09-21 10:09:00+00:00,281.7064,14.1,11.37,47.84626,-54.09684
2022-09-21 10:19:00+00:00,275.968,14.1,11.46,47.84626,-54.09684
2022-09-21 10:29:00+00:00,275.0181,14.1,11.46,47.84626,-54.09684
2022-09-21 10:39:00+00:00,272.1147,14.11,11.46,47.84626,-54.09684
2022-09-21 10:49:00+00:00,264.0948,14.13,11.46,47.84626,-54.09684
2022-09-21 10:59:00+00:00,259.4598,14.15,11.46,47.84626,-54.09684
2022-09-21 11:09:00+00:00,261.2047,14.16,11.46,47.84626,-54.09684
2022-09-21 11:19:00+00:00,259.458,14.18,11.61,47.84626,-54.09684
2022-09-21 11:29:00+00:00,252.5131,14.19,11.61,47.84626,-54.09684
2022-09-21 11:39:00+00:00,249.1531,14.2,11.61,47.84626,-54.09684
2022-09-21 11:49:00+00:00,250.7397,14.2,11.61,47.84626,-54.09684
2022-09-21 11:59:00+00:00,249.7064,14.2,11.61,47.84626,-54.09684
2022-09-21 12:09:00+00:00,244.2531,14.2,11.61,47.84626,-54.09684
2022-09-21 12:19:00+00:00,241.9882,14.2,11.77,47.84626,-54.09684
2022-09-21 12:29:00+00:00,242.0131,14.2,11.77,47.84626,-54.09684
2022-09-21 12:39:00+00:00,240.2515,14.2,11.77,47.84626,-54.09684
2022-09-21 12:49:00+00:00,236.3248,14.2,11.77,47.84626,-54.09684
2022-09-21 12:59:00+00:00,234.7014,14.2,11.77,47.84626,-54.09684
2022-09-21 13:09:00+00:00,233.5865,14.21,11.77,47.84626,-54.09684
2022-09-21 13:19:00+00:00,234.1064,14.23,11.86,47.84626,-54.09684
2022-09-21 13:29:00+00:00,231.5482,14.25,11.86,47.84626,-54.09684
2022-09-21 13:39:00+00:00,231.0747,14.26,11.86,47.84626,-54.09684
2022-09-21 13:49:00+00:00,233.1331,14.27,11.86,47.84626,-54.09684
2022-09-21 13:59:00+00:00,231.6098,14.29,11.86,47.84626,-54.09684
2022-09-21 14:09:00+00:00,226.5931,14.3,11.86,47.84626,-54.09684
2022-09-21 14:19:00+00:00,223.5131,14.3,11.86,47.84626,-54.09684
2022-09-21 14:29:00+00:00,221.6097,14.3,11.86,47.84626,-54.09684
2022-09-21 14:39:00+00:00,217.2464,14.3,11.86,47.84626,-54.09684
2022-09-21 14:49:00+00:00,218.3514,14.3,11.86,47.84626,-54.09684
2022-09-21 14:59:00+00:00,225.7065,14.3,11.86,47.84626,-54.09684
2022-09-21 15:09:00+00:00,225.7048,14.3,11.86,47.84626,-54.09684
2022-09-21 15:19:00+00:00,221.5348,14.3,11.86,47.84626,-54.09684
2022-09-21 15:29:00+00:00,224.1698,14.3,11.86,47.84626,-54.09684
2022-09-21 15:39:00+00:00,227.9648,14.3,11.86,47.84626,-54.09684
2022-09-21 15:49:00+00:00,228.6314,14.34,11.86,47.84626,-54.09684
2022-09-21 15:59:00+00:00,227.9048,14.36,11.86,47.84626,-54.09684
2022-09-21 16:09:00+00:00,230.078,14.37,11.86,47.84626,-54.09684
2022-09-21 16:19:00+00:00,234.2248,14.38,11.86,47.84626,-54.09684
2022-09-21 16:29:00+00:00,237.4897,14.38,11.86,47.84626,-54.09684
2022-09-21 16:39:00+00:00,240.5948,14.38,11.86,47.84626,-54.09684
2022-09-21 16:49:00+00:00,242.8181,14.39,11.86,47.84626,-54.09684
2022-09-21 16:59:00+00:00,244.1681,14.39,11.86,47.84626,-54.09684
2022-09-21 17:09:00+00:00,249.4481,14.37,11.86,47.84626,-54.09684
2022-09-21 17:19:00+00:00,254.2047,14.35,11.77,47.84626,-54.09684
2022-09-21 17:29:00+00:00,256.2014,14.34,11.77,47.84626,-54.09684
2022-09-21 17:39:00+00:00,257.9131,14.35,11.77,47.84626,-54.09684
2022-09-21 17:49:00+00:00,263.0297,14.37,11.77,47.84626,-54.09684
2022-09-21 17:59:00+00:00,265.1131,14.38,11.77,47.84626,-54.09684
2022-09-21 18:09:00+00:00,267.1847,14.39,11.77,47.84626,-54.09684
2022-09-21 18:19:00+00:00,272.8764,14.39,11.7,47.84626,-54.09684
2022-09-21 18:29:00+00:00,281.1181,14.3,11.7,47.84626,-54.09684
2022-09-21 18:39:00+00:00,283.58299999999997,14.3,11.7,47.84626,-54.09684
2022-09-21 18:49:00+00:00,287.3864,14.3,11.7,47.84626,-54.09684
2022-09-21 18:59:00+00:00,296.538,14.3,11.7,47.84626,-54.09684
2022-09-21 19:09:00+00:00,302.3331,14.3,11.7,47.84626,-54.09684
2022-09-21 19:19:00+00:00,299.4164,14.3,11.61,47.84626,-54.09684
2022-09-21 19:29:00+00:00,299.6414,14.29,11.61,47.84626,-54.09684
2022-09-21 19:39:00+00:00,307.3947,14.26,11.61,47.84626,-54.09684
2022-09-21 19:49:00+00:00,313.7163,14.28,11.61,47.84626,-54.09684
2022-09-21 19:59:00+00:00,315.1063,14.27,11.61,47.84626,-54.09684
2022-09-21 20:09:00+00:00,317.788,14.25,11.61,47.84626,-54.09684
2022-09-21 20:19:00+00:00,320.6863,14.21,11.61,47.84626,-54.09684
2022-09-21 20:29:00+00:00,322.4164,14.2,11.61,47.84626,-54.09684
2022-09-21 20:39:00+00:00,322.5048,14.2,11.61,47.84626,-54.09684
2022-09-21 20:49:00+00:00,321.5264,14.2,11.61,47.84626,-54.09684
2022-09-21 20:59:00+00:00,321.9379,14.2,11.61,47.84626,-54.09684
2022-09-21 21:09:00+00:00,325.2263,14.2,11.61,47.84626,-54.09684
2022-09-21 21:19:00+00:00,328.6446,14.2,11.53,47.84626,-54.09684
2022-09-21 21:29:00+00:00,328.3213,14.2,11.53,47.84626,-54.09684
2022-09-21 21:39:00+00:00,329.2429,14.2,11.53,47.84626,-54.09684
2022-09-21 21:49:00+00:00,331.3863,14.2,11.53,47.84626,-54.09684
2022-09-21 21:59:00+00:00,330.408,14.2,11.53,47.84626,-54.09684
2022-09-21 22:09:00+00:00,328.8646,14.2,11.53,47.84626,-54.09684
2022-09-21 22:19:00+00:00,328.3914,14.2,11.53,47.84626,-54.09684
2022-09-21 22:29:00+00:00,323.5247,14.2,11.53,47.84626,-54.09684
2022-09-21 22:39:00+00:00,321.1979,14.2,11.53,47.84626,-54.09684
2022-09-21 22:49:00+00:00,318.39799999999997,14.2,11.53,47.84626,-54.09684
2022-09-21 22:59:00+00:00,314.5896,14.2,11.53,47.84626,-54.09684
2022-09-21 23:09:00+00:00,311.5731,14.2,11.53,47.84626,-54.09684
2022-09-21 23:19:00+00:00,307.858,14.2,11.53,47.84626,-54.09684
2022-09-21 23:29:00+00:00,304.0914,14.2,11.53,47.84626,-54.09684
2022-09-21 23:39:00+00:00,297.4431,14.2,11.53,47.84626,-54.09684
2022-09-21 23:49:00+00:00,294.813,14.2,11.53,47.84626,-54.09684
2022-09-21 23:59:00+00:00,290.6981,14.2,11.53,47.84626,-54.09684
